This is the latest recevied weather packets stored in our database for station/object KM4KBD. If no packets are shown the sender has not sent any weather packets the latest 10 day(s).
| Time | Temp. | Humidity | Pressure | Rain* | Wind** | Luminosity | Snow |
|---|---|---|---|---|---|---|---|
| 1778090328 | 15° C | 79% | 1018.6 hPa | 0 mm | - | 207 W/m² | - |
| 1778088813 | 14.44° C | 83% | 1018.7 hPa | 0 mm | - | 387 W/m² | - |
| 1778088510 | 14.44° C | 81% | 1018.5 hPa | 0 mm | - | 378 W/m² | - |
| 1778088207 | 14.44° C | 84% | 1018.7 hPa | 0 mm | - | 396 W/m² | - |
| 1778087299 | 13.89° C | 85% | 1019 hPa | 0 mm | - | 235 W/m² | - |
| 1778085176 | 12.22° C | 91% | 1018.9 hPa | 0 mm | - | 261 W/m² | - |
| 1778084872 | 12.22° C | 92% | 1019 hPa | 0 mm | - | 226 W/m² | - |
| 1778083662 | 11.11° C | 94% | 1018.9 hPa | 0 mm | - | 274 W/m² | - |
| 1778077382 | 10° C | 99% | 1017.9 hPa | 0 mm | - | 74 W/m² | - |
| 1778077080 | 10° C | 99% | 1017.7 hPa | 0 mm | - | 73 W/m² | - |
| 1778076172 | 10° C | 99% | 1017.7 hPa | 0 mm | - | 64 W/m² | - |
| 1778075565 | 10° C | 99% | 1017.4 hPa | 0 mm | - | 67 W/m² | - |
| 1778074656 | 10° C | 99% | 1017.3 hPa | 0 mm | - | 91 W/m² | - |
| 1778074352 | 10° C | 99% | 1017 hPa | 0 mm | - | 90 W/m² | - |
| 1778074049 | 9.44° C | 99% | 1017 hPa | 0 mm | - | 84 W/m² | - |
| 1778073140 | 9.44° C | 99% | 1017 hPa | 0 mm | - | 52 W/m² | - |
| 1778072837 | 9.44° C | 99% | 1016.9 hPa | 0 mm | - | 49 W/m² | - |
| 1778072534 | 9.44° C | 99% | 1017.1 hPa | 0 mm | - | 46 W/m² | - |
| 1778070721 | 9.44° C | 99% | 1016.9 hPa | 1.27 mm | - | 27 W/m² | - |
| 1778069508 | 10° C | 99% | 1015.9 hPa | 0 mm | - | 23 W/m² | - |
| 1778069207 | 10° C | 99% | 1016 hPa | 0 mm | - | 28 W/m² | - |
| 1778063759 | 15° C | 99% | 1014.3 hPa | 0 mm | - | 0 W/m² | - |
| 1778063456 | 15° C | 99% | 1014.1 hPa | 0 mm | - | 0 W/m² | - |
| 1778062548 | 15° C | 99% | 1013.7 hPa | 0 mm | - | 0 W/m² | - |
| 1778062245 | 15° C | 99% | 1013.8 hPa | 0 mm | - | 0 W/m² | - |
* Rain latest hour (hover to see other rain measurements)
** Current wind speed in m/s (hover to see current wind gust speed)